This demonstration page uses our WeatherBlox Daily Observations layout. Learn more.

Left ArrowRight Arrow

47.50024, -111.30081

Hourly Observations for January 3, 2016

Temp ( °F °C ) Dew Point ( °F °C ) Humidity (%) Winds ( mph kmh ) Pressure ( in mb ) Visibility ( mi km ) Precip ( " mm )
12:53 am 00:53 Clear 14 -10 3 -16.1 61 61 SSW 12 19 30.40 1029 10 16 0.00 0.00
1:53 am 01:53 Clear 15 -9.4 4 -15.6 61 61 SW 12 19 30.38 1029 10 16 0.00 0.00
2:53 am 02:53 Clear 16 -8.9 4 -15.6 59 59 SW 12 19 30.38 1029 10 16 0.00 0.00
3:53 am 03:53 Clear 15 -9.4 4 -15.6 61 61 SW 8 13 30.37 1029 10 16 0.00 0.00
4:53 am 04:53 Partly Cloudy 16 -8.9 7 -13.9 67 67 SSW 10 17 30.37 1028 10 16 0.00 0.00
5:53 am 05:53 Clear 19 -7.2 8 -13.3 62 62 SW 13 20 30.34 1027 10 16 0.00 0.00
6:53 am 06:53 Clear 23 -5 12 -11.1 63 63 SSW 13 20 30.32 1027 10 16 0.00 0.00
7:53 am 07:53 Clear 22 -5.6 11 -11.7 63 63 SSW 13 20 30.33 1027 10 16 0.00 0.00
8:53 am 08:53 Sunny 19 -7.2 8 -13.3 62 62 WSW 10 17 30.34 1028 10 16 0.00 0.00
9:53 am 09:53 Sunny 21 -6.1 10 -12.2 62 62 SW 15 24 30.34 1027 10 16 0.00 0.00
10:53 am 10:53 Sunny 24 -4.4 13 -10.6 62 62 Calm 30.34 1027 10 16 0.00 0.00
11:53 am 11:53 Sunny 27 -2.8 17 -8.3 66 66 SSW 12 19 30.30 1026 10 16 0.00 0.00
12:53 pm 12:53 Sunny 31 -0.6 20 -6.7 64 64 SW 9 15 30.24 1024 10 16 0.00 0.00
1:53 pm 13:53 Sunny 30 -1.1 19 -7.2 64 64 ESE 7 11 30.24 1024 10 16 0.00 0.00
2:53 pm 14:53 Sunny 31 -0.6 17 -8.3 56 56 ESE 10 17 30.21 1023 10 16 0.00 0.00
3:53 pm 15:53 Sunny 29 -1.7 18 -7.8 63 63 Calm 30.22 1024 10 16 0.00 0.00
4:53 pm 16:53 Clear 26 -3.3 18 -7.8 71 71 SW 6 9 30.22 1023 10 16 0.00 0.00
5:53 pm 17:53 Clear 25 -3.9 17 -8.3 72 72 S 5 7 30.20 1023 10 16 0.00 0.00
6:53 pm 18:53 Clear 29 -1.7 15 -9.4 56 56 SSW 5 7 30.16 1021 10 16 0.00 0.00
7:53 pm 19:53 Clear 26 -3.3 14 -10 60 60 SW 7 11 30.15 1021 10 16 0.00 0.00
8:53 pm 20:53 Clear 23 -5 14 -10 68 68 SW 9 15 30.14 1021 10 16 0.00 0.00
9:53 pm 21:53 Clear 23 -5 15 -9.4 72 72 SW 6 9 30.12 1020 10 16 0.00 0.00
10:53 pm 22:53 Clear 25 -3.9 15 -9.4 66 66 VRB 6 9 30.10 1019 10 16 0.00 0.00
11:53 pm 23:53 Partly Cloudy 24 -4.4 14 -10 65 65 SW 12 19 30.08 1019 10 16 0.00 0.00

Powered by AerisWeather